Kentucky Observed Data For Previous 48 Hours

Caption
Day and Hour Reservoir Elevation (behind dam)* Tailwater Elevation (below dam)* Average Hourly Discharge*
9/20/2018 1 AM CDT 357.66 314.29 52,082
9/20/2018 2 AM CDT 357.65 314.14 51,911
9/20/2018 3 AM CDT 357.64 313.99 51,873
9/20/2018 4 AM CDT 357.61 313.94 52,055
9/20/2018 5 AM CDT 357.59 313.89 52,081
9/20/2018 6 AM CDT 357.56 313.63 52,144
9/20/2018 7 AM CDT 357.51 313.48 52,087
9/20/2018 8 AM CDT 357.49 313.36 51,892
9/20/2018 9 AM CDT 357.46 313.20 51,936
9/20/2018 10 AM CDT 357.44 313.10 51,843
9/20/2018 11 AM CDT 357.41 313.00 51,859
9/20/2018 12 PM CDT 357.40 312.69 51,628
9/20/2018 1 PM CDT 357.36 312.76 51,633
9/20/2018 2 PM CDT 357.36 312.55 51,475
9/20/2018 3 PM CDT 357.33 312.44 51,526
9/20/2018 4 PM CDT 357.28 312.33 51,644
9/20/2018 5 PM CDT 357.27 312.39 51,458
9/20/2018 6 PM CDT 357.22 312.26 51,572
9/20/2018 7 PM CDT 357.13 312.12 51,604
9/20/2018 8 PM CDT 357.07 311.91 51,662
9/20/2018 9 PM CDT 357.02 311.88 51,565
9/20/2018 10 PM CDT 357.00 311.83 51,567
9/20/2018 11 PM CDT 357.02 311.69 51,424
9/21/2018 12 AM CDT 357.04 311.57 51,352
9/21/2018 1 AM CDT 357.08 311.48 51,414
9/21/2018 2 AM CDT 357.09 311.48 51,456
9/21/2018 3 AM CDT 357.09 311.23 51,301
9/21/2018 4 AM CDT 357.08 311.31 51,268
9/21/2018 5 AM CDT 357.09 311.27 51,171
9/21/2018 6 AM CDT 357.06 311.09 51,197
9/21/2018 7 AM CDT 357.06 311.09 51,073
9/21/2018 8 AM CDT 357.02 310.96 51,111
9/21/2018 9 AM CDT 356.99 310.88 51,195
9/21/2018 10 AM CDT 356.95 310.86 51,053
9/21/2018 11 AM CDT 356.90 310.77 51,013
9/21/2018 12 PM CDT 356.83 310.96 51,172
9/21/2018 1 PM CDT 356.77 310.71 51,384
9/21/2018 2 PM CDT 356.75 310.64 51,326
9/21/2018 3 PM CDT 356.67 310.71 51,337
9/21/2018 4 PM CDT 356.68 310.74 51,507
9/21/2018 5 PM CDT 356.56 310.47 51,470
9/21/2018 6 PM CDT 356.54 310.59 51,453
9/21/2018 7 PM CDT 356.57 310.56 51,579
9/21/2018 8 PM CDT 356.58 310.51 51,390
9/21/2018 9 PM CDT 356.57 310.39 51,449
9/21/2018 10 PM CDT 356.54 310.45 51,395
9/21/2018 11 PM CDT 356.53 310.41 51,361
9/22/2018 12 AM CDT 356.53 310.35 51,343
9/22/2018 1 AM CDT 356.53 310.44 51,508
9/22/2018 2 AM CDT 356.54 310.34 51,386
9/22/2018 3 AM CDT 356.55 310.28 51,377
9/22/2018 4 AM CDT 356.54 310.29 50,002
9/22/2018 5 AM CDT 356.44 310.29 49,900
9/22/2018 6 AM CDT 356.41 310.27 49,898

Elevations are in feet above sea level. Discharges are in cubic feet per second and are reported at the end of the hour.